FW8343 Weather Reports


Display with metric or nautical units.
time (UTC)temp
F
wind
direction
speed
MPH
gust
MPH
rain 1hr
in
rain 24hr
in
rain mn
in
humidity
%
barometer
mb
20260507103510 35 285 1.0 3.0 0.00 0.00 0.00 73 1012.2
20260507103033 35 0 1.0 3.0 0.00 0.00 0.00 73 1012.1
20260507102515 35 285 1.0 3.0 0.00 0.00 0.00 73 1012.1
20260507102015 35 0 0.0 3.0 0.00 0.00 0.00 73 1012.1
20260507101532 35 285 0.0 4.0 0.00 0.00 0.00 73 1012.1
20260507101009 35 285 1.0 4.0 0.00 0.00 0.00 73 1012.0
20260507100509 35 0 0.0 2.0 0.00 0.00 0.00 73 1012.1
20260507100034 35 285 0.0 3.0 0.00 0.00 0.00 72 1012.1
20260507095510 35 0 0.0 3.0 0.00 0.00 0.00 72 1012.1
20260507095010 35 0 0.0 3.0 0.00 0.00 0.00 72 1012.1
20260507094529 35 285 0.0 2.0 0.00 0.00 0.00 72 1012.1
20260507094010 35 0 0.0 2.0 0.00 0.00 0.00 72 1012.2
20260507093516 35 0 0.0 2.0 0.00 0.00 0.00 72 1012.2
20260507093029 35 285 0.0 2.0 0.00 0.00 0.00 72 1012.1
20260507092518 35 0 0.0 2.0 0.00 0.00 0.00 72 1012.1
20260507092013 35 0 0.0 2.0 0.00 0.00 0.00 72 1012.1
20260507091529 35 285 0.0 2.0 0.00 0.00 0.00 72 1012.1
20260507091011 36 0 0.0 3.0 0.00 0.00 0.00 72 1012.1
20260507090512 36 0 0.0 3.0 0.00 0.00 0.00 71 1012.2
20260507090030 36 0 0.0 2.0 0.00 0.00 0.00 71 1012.2
20260507085512 36 0 0.0 2.0 0.00 0.00 0.00 72 1012.2
20260507085012 36 0 0.0 3.0 0.00 0.00 0.00 71 1012.3
20260507084532 36 0 0.0 3.0 0.00 0.00 0.00 71 1012.3
20260507084009 36 0 0.0 3.0 0.00 0.00 0.00 71 1012.4
20260507083513 36 0 0.0 2.0 0.00 0.00 0.00 71 1012.4
20260507083030 36 0 0.0 2.0 0.00 0.00 0.00 71 1012.4
20260507082510 36 0 0.0 2.0 0.00 0.00 0.00 71 1012.3
20260507082014 36 0 0.0 2.0 0.00 0.00 0.00 71 1012.3
20260507081532 36 285 0.0 2.0 0.00 0.00 0.00 71 1012.4
20260507081013 36 0 0.0 2.0 0.00 0.00 0.00 71 1012.4
20260507080512 36 0 0.0 3.0 0.00 0.00 0.00 70 1012.4
20260507080038 36 0 0.0 3.0 0.00 0.00 0.00 71 1012.4
20260507075511 36 0 0.0 2.0 0.00 0.00 0.00 70 1012.4
20260507075011 36 0 0.0 3.0 0.00 0.00 0.00 70 1012.4
20260507074530 36 0 0.0 3.0 0.00 0.00 0.00 70 1012.5
20260507074014 36 285 0.0 4.0 0.00 0.00 0.00 70 1012.5
20260507073512 36 0 0.0 4.0 0.00 0.00 0.00 69 1012.6
20260507073029 36 285 0.0 4.0 0.00 0.00 0.00 70 1012.6
20260507072510 36 0 0.0 3.0 0.00 0.00 0.00 69 1012.7
20260507072012 36 0 0.0 2.0 0.00 0.00 0.00 70 1012.7
20260507071557 36 0 0.0 2.0 0.00 0.00 0.00 70 1012.7
20260507071011 37 0 0.0 2.0 0.00 0.00 0.00 70 1012.8
20260507070514 37 0 0.0 4.0 0.00 0.00 0.00 68 1012.9
20260507070033 37 0 1.0 4.0 0.00 0.00 0.00 68 1012.9
20260507065509 37 0 0.0 3.0 0.00 0.00 0.00 68 1012.8
20260507065013 37 0 0.0 3.0 0.00 0.00 0.00 68 1012.9
20260507064531 37 0 0.0 1.0 0.00 0.00 0.00 68 1012.9
20260507064013 38 0 0.0 3.0 0.00 0.00 0.00 69 1012.9
20260507063514 38 0 0.0 6.0 0.00 0.00 0.00 68 1013.0
20260507063029 38 0 1.0 6.0 0.00 0.00 0.00 69 1013.0
20260507062516 38 225 2.0 6.0 0.00 0.00 0.00 69 1013.0
20260507062016 38 225 2.0 5.0 0.00 0.00 0.00 70 1013.1
20260507061530 37 225 3.0 5.0 0.00 0.00 0.00 69 1013.2
20260507061011 37 225 1.0 5.0 0.00 0.00 0.00 69 1013.2
20260507060511 37 0 0.0 0.0 0.00 0.00 0.00 69 1013.3
20260507060036 37 0 0.0 0.0 0.00 0.00 0.00 68 1013.3
20260507055509 37 0 0.0 0.0 0.00 0.00 0.00 67 1013.3
20260507055014 37 0 0.0 0.0 0.00 0.00 0.00 68 1013.4
20260507054531 37 0 0.0 1.0 0.00 0.00 0.00 67 1013.4
20260507054014 37 0 0.0 2.0 0.00 0.00 0.00 69 1013.5
20260507053512 37 0 0.0 2.0 0.00 0.00 0.00 67 1013.4
20260507053042 37 273 0.0 2.0 0.00 0.00 0.00 67 1013.5
20260507052510 37 0 0.0 3.0 0.00 0.00 0.00 66 1013.6
20260507052008 37 0 0.0 3.0 0.00 0.00 0.00 66 1013.7
20260507051538 37 273 0.0 3.0 0.00 0.00 0.00 66 1013.6
20260507051009 37 0 0.0 2.0 0.00 0.00 0.00 66 1013.7
20260507050511 37 0 0.0 2.0 0.00 0.00 0.00 66 1013.7
20260507050035 38 0 0.0 3.0 0.00 0.00 0.00 66 1013.8
20260507045509 38 273 1.0 3.0 0.00 0.00 0.00 66 1013.8
20260507045012 38 0 1.0 3.0 0.00 0.00 0.00 66 1013.8
20260507044531 38 273 0.0 2.0 0.00 0.00 0.00 67 1013.9
20260507044012 38 273 0.0 3.0 0.00 0.00 0.00 65 1013.9
20260507043514 38 273 0.0 3.0 0.00 0.00 0.00 66 1013.9
20260507043031 38 273 0.0 3.0 0.00 0.00 0.00 65 1013.9
20260507042512 38 273 0.0 3.0 0.00 0.00 0.00 65 1013.9
20260507042016 38 273 1.0 3.0 0.00 0.00 0.00 65 1014.0
20260507041530 38 273 1.0 3.0 0.00 0.00 0.00 65 1014.0
20260507041010 38 0 1.0 3.0 0.00 0.00 0.00 65 1013.9
20260507040512 38 273 1.0 3.0 0.00 0.00 0.00 65 1014.1
20260507040030 38 273 1.0 3.0 0.00 0.00 0.00 64 1014.1
20260507035510 38 273 1.0 3.0 0.00 0.00 0.00 64 1014.1
20260507035012 38 273 0.0 3.0 0.00 0.00 0.00 65 1014.1
20260507034536 38 273 0.0 3.0 0.00 0.00 0.00 64 1014.2
20260507034011 38 273 0.0 2.0 0.00 0.00 0.00 65 1014.2
20260507033512 38 273 0.0 3.0 0.00 0.00 0.00 64 1014.1
20260507033040 38 273 0.0 3.0 0.00 0.00 0.00 64 1014.3
20260507032511 38 273 0.0 3.0 0.00 0.00 0.00 64 1014.2
20260507032012 38 0 0.0 3.0 0.00 0.00 0.00 64 1014.2
20260507031529 38 273 0.0 2.0 0.00 0.00 0.00 64 1014.2
20260507031013 38 273 0.0 3.0 0.00 0.00 0.00 65 1014.3
20260507030514 39 273 0.0 3.0 0.00 0.00 0.00 63 1014.2
20260507030032 39 0 0.0 2.0 0.00 0.00 0.00 64 1014.2
20260507025511 39 273 0.0 2.0 0.00 0.00 0.00 63 1014.2
20260507025015 39 0 0.0 2.0 0.00 0.00 0.00 62 1014.2
20260507024536 39 273 0.0 2.0 0.00 0.00 0.00 63 1014.2
20260507024009 39 273 0.0 2.0 0.00 0.00 0.00 62 1014.2
20260507023514 39 0 0.0 2.0 0.00 0.00 0.00 62 1014.2
20260507023035 39 0 0.0 3.0 0.00 0.00 0.00 63 1014.2
20260507022511 39 273 0.0 4.0 0.00 0.00 0.00 62 1014.2
20260507022013 39 273 1.0 4.0 0.00 0.00 0.00 61 1014.3
20260507021531 39 0 0.0 3.0 0.00 0.00 0.00 63 1014.2
20260507021015 39 224 0.0 3.0 0.00 0.00 0.00 61 1014.2
20260507020515 39 0 0.0 3.0 0.00 0.00 0.00 61 1014.1
20260507020029 39 0 0.0 3.0 0.00 0.00 0.00 61 1014.1
20260507015511 39 267 1.0 3.0 0.00 0.00 0.00 61 1014.1
20260507015017 39 0 1.0 5.0 0.00 0.00 0.00 62 1014.1
20260507014530 39 267 1.0 7.0 0.00 0.00 0.00 61 1014.0
20260507014011 39 267 2.0 7.0 0.00 0.00 0.00 61 1014.1
20260507013510 39 259 2.0 7.0 0.00 0.00 0.00 60 1014.0
20260507013029 39 229 2.0 7.0 0.00 0.00 0.00 61 1014.0
20260507012509 39 270 2.0 6.0 0.00 0.00 0.00 60 1014.1
20260507012010 39 290 2.0 4.0 0.00 0.00 0.00 60 1014.1
20260507011538 39 252 1.0 4.0 0.00 0.00 0.00 60 1014.0
20260507011011 40 0 1.0 6.0 0.00 0.00 0.00 60 1014.0
20260507010512 40 270 2.0 6.0 0.00 0.00 0.00 60 1014.1
20260507010035 40 267 2.0 6.0 0.00 0.00 0.00 60 1014.0
20260507005512 40 267 0.0 3.0 0.00 0.00 0.00 60 1014.0
20260507005010 40 0 1.0 4.0 0.00 0.00 0.00 59 1013.9
20260507004536 40 267 1.0 7.0 0.00 0.00 0.00 59 1013.9
20260507004011 40 267 2.0 8.0 0.00 0.00 0.00 58 1014.0
20260507003516 40 270 3.0 8.0 0.00 0.00 0.00 58 1013.9
20260507003030 40 259 2.0 8.0 0.00 0.00 0.00 58 1013.9
20260507002511 40 273 2.0 7.0 0.00 0.00 0.00 58 1014.0
20260507002017 40 265 2.0 7.0 0.00 0.00 0.00 59 1013.9
20260507001530 40 264 2.0 7.0 0.00 0.00 0.00 59 1013.9
20260507001012 40 275 2.0 7.0 0.00 0.00 0.00 58 1013.9
20260507000514 40 259 2.0 6.0 0.00 0.00 0.00 58 1014.0
20260507000032 40 276 2.0 7.0 0.00 0.00 0.00 59 1014.0
20260506235511 40 273 2.0 8.0 0.00 0.00 0.00 58 1014.0
20260506235012 40 269 3.0 8.0 0.00 0.00 0.00 58 1014.1
20260506234530 40 286 4.0 8.0 0.00 0.00 0.00 58 1014.0
20260506234011 40 259 3.0 8.0 0.00 0.00 0.00 58 1014.1
20260506233510 40 271 3.0 8.0 0.00 0.00 0.00 59 1014.1
20260506233031 40 248 2.0 8.0 0.00 0.00 0.00 60 1014.1
20260506232511 40 248 3.0 8.0 0.00 0.00 0.00 59 1014.1
20260506232013 40 281 4.0 8.0 0.00 0.00 0.00 59 1014.1
20260506231529 40 256 3.0 9.0 0.00 0.00 0.00 59 1014.2
20260506231010 41 265 5.0 9.0 0.00 0.00 0.00 59 1014.1
20260506230512 41 274 3.0 9.0 0.00 0.00 0.00 60 1014.1
20260506230036 41 265 2.0 9.0 0.00 0.00 0.00 59 1014.1
20260506225513 41 286 2.0 8.0 0.00 0.00 0.00 59 1014.1
20260506225015 41 275 3.0 8.0 0.00 0.00 0.00 59 1014.1
20260506224534 41 323 3.0 9.0 0.00 0.00 0.00 59 1014.1
20260506224012 41 269 4.0 9.0 0.00 0.00 0.00 59 1014.1
20260506223517 41 246 3.0 9.0 0.00 0.00 0.00 59 1013.9
20260506223027 42 257 4.0 9.0 0.00 0.00 0.00 57 1014.0
20260506222511 42 270 3.0 9.0 0.00 0.00 0.00 57 1013.9
20260506222013 42 259 4.0 9.0 0.00 0.00 0.00 57 1013.9
20260506221531 42 267 4.0 9.0 0.00 0.00 0.00 58 1013.9
20260506221009 42 258 2.0 7.0 0.00 0.00 0.00 59 1013.9
20260506220511 42 227 3.0 7.0 0.00 0.00 0.00 59 1013.9
20260506220038 42 190 3.0 10.0 0.00 0.00 0.00 59 1013.9
20260506215507 42 250 2.0 10.0 0.00 0.00 0.00 58 1013.9
20260506215012 42 276 4.0 9.0 0.00 0.00 0.00 57 1013.9
20260506214531 42 242 4.0 8.0 0.00 0.00 0.00 57 1013.9
20260506214011 42 265 3.0 10.0 0.00 0.00 0.00 58 1014.0
20260506213510 42 259 3.0 10.0 0.00 0.00 0.00 56 1013.9
20260506213032 42 274 2.0 9.0 0.00 0.00 0.00 59 1013.9
20260506212514 42 262 5.0 9.0 0.00 0.00 0.00 55 1014.0
20260506212013 42 263 2.0 8.0 0.00 0.00 0.00 58 1013.9
20260506211533 41 255 1.0 8.0 0.00 0.00 0.00 59 1014.0
20260506211007 41 269 5.0 9.0 0.00 0.00 0.00 56 1014.0
20260506210512 41 273 2.0 9.0 0.00 0.00 0.00 58 1014.0
20260506210030 41 274 3.0 8.0 0.00 0.00 0.00 58 1014.0
20260506205510 41 279 3.0 10.0 0.00 0.00 0.00 56 1014.1
20260506205014 41 281 1.0 10.0 0.00 0.00 0.00 58 1014.1
20260506204530 41 266 4.0 10.0 0.00 0.00 0.00 58 1014.1
20260506204013 41 242 3.0 9.0 0.00 0.00 0.00 56 1014.1
20260506203511 41 276 4.0 9.0 0.00 0.00 0.00 57 1014.2
20260506203031 41 273 2.0 9.0 0.00 0.00 0.00 58 1014.1
20260506202509 41 266 3.0 9.0 0.00 0.00 0.00 57 1014.2
20260506202019 40 269 3.0 8.0 0.00 0.00 0.00 57 1014.2
20260506201532 40 227 4.0 10.0 0.00 0.00 0.00 57 1014.2
20260506201008 40 250 5.0 10.0 0.00 0.00 0.00 57 1014.3
20260506200511 40 275 4.0 9.0 0.00 0.00 0.00 58 1014.4
20260506200030 40 244 2.0 7.0 0.00 0.00 0.00 60 1014.4
20260506195510 40 262 3.0 7.0 0.00 0.00 0.00 57 1014.4
20260506195012 40 255 2.0 8.0 0.00 0.00 0.00 60 1014.4
20260506194528 40 268 2.0 10.0 0.00 0.00 0.00 60 1014.4
20260506194009 40 267 5.0 10.0 0.00 0.00 0.00 58 1014.4
20260506193512 40 253 4.0 7.0 0.00 0.00 0.00 57 1014.4
20260506193027 40 241 3.0 10.0 0.00 0.00 0.00 58 1014.4
20260506192510 40 291 4.0 10.0 0.00 0.00 0.00 57 1014.4
20260506192011 40 227 2.0 10.0 0.00 0.00 0.00 59 1014.5
20260506191530 40 276 3.0 10.0 0.00 0.00 0.00 60 1014.4
20260506191010 40 263 3.0 10.0 0.00 0.00 0.00 58 1014.4
20260506190515 40 279 1.0 10.0 0.00 0.00 0.00 59 1014.4
20260506190030 40 283 3.0 8.0 0.00 0.00 0.00 58 1014.4
20260506185509 40 0 0.0 7.0 0.00 0.00 0.00 61 1014.4
20260506185013 40 254 2.0 6.0 0.00 0.00 0.00 60 1014.3
20260506184529 39 268 1.0 8.0 0.00 0.00 0.00 61 1014.4
20260506184017 39 232 2.0 8.0 0.00 0.00 0.00 61 1014.4
20260506183510 39 226 2.0 9.0 0.00 0.00 0.00 60 1014.4
20260506183030 39 290 3.0 9.0 0.00 0.00 0.00 59 1014.5
20260506182512 39 281 3.0 9.0 0.00 0.00 0.00 60 1014.5
20260506182014 39 235 3.0 9.0 0.00 0.00 0.00 58 1014.5
20260506181532 39 275 3.0 8.0 0.00 0.00 0.00 60 1014.5
20260506181010 39 236 3.0 12.0 0.00 0.00 0.00 59 1014.5
20260506180512 39 268 5.0 12.0 0.00 0.00 0.00 60 1014.5
20260506180032 39 223 2.0 12.0 0.00 0.00 0.00 59 1014.5
20260506175515 39 246 4.0 12.0 0.00 0.00 0.00 59 1014.5
20260506175017 39 284 5.0 11.0 0.00 0.00 0.00 58 1014.5
20260506174532 39 231 2.0 11.0 0.00 0.00 0.00 60 1014.5
20260506174010 39 223 5.0 11.0 0.00 0.00 0.00 58 1014.5
20260506173515 39 273 3.0 12.0 0.00 0.00 0.00 60 1014.6
20260506173030 39 220 4.0 12.0 0.00 0.00 0.00 59 1014.6
20260506172511 39 244 4.0 9.0 0.00 0.00 0.00 58 1014.6
20260506172012 39 240 4.0 10.0 0.00 0.00 0.00 60 1014.6
20260506171530 40 273 2.0 10.0 0.00 0.00 0.00 60 1014.6
20260506171010 40 275 4.0 8.0 0.00 0.00 0.00 58 1014.6
20260506170512 39 271 2.0 9.0 0.00 0.00 0.00 59 1014.7
20260506170033 39 275 4.0 9.0 0.00 0.00 0.00 58 1014.6
20260506165513 39 272 5.0 9.0 0.00 0.00 0.00 57 1014.6
20260506165011 39 273 4.0 10.0 0.00 0.00 0.00 59 1014.6
20260506164531 39 225 3.0 10.0 0.00 0.00 0.00 58 1014.6
20260506164010 39 307 2.0 8.0 0.00 0.00 0.00 60 1014.7
20260506163511 39 229 3.0 9.0 0.00 0.00 0.00 59 1014.7
20260506163032 39 280 3.0 9.0 0.00 0.00 0.00 59 1014.7
20260506162513 39 284 1.0 8.0 0.00 0.00 0.00 61 1014.8
20260506162011 38 277 3.0 8.0 0.00 0.00 0.00 58 1014.7
20260506161535 38 261 3.0 8.0 0.00 0.00 0.00 59 1014.7
20260506161011 38 248 2.0 10.0 0.00 0.00 0.00 57 1014.7
20260506160517 38 263 3.0 10.0 0.00 0.00 0.00 57 1014.6
20260506160031 38 257 2.0 10.0 0.00 0.00 0.00 59 1014.6
20260506155513 38 281 3.0 9.0 0.00 0.00 0.00 60 1014.6
20260506155015 38 232 2.0 9.0 0.00 0.00 0.00 59 1014.6
20260506154533 38 267 2.0 11.0 0.00 0.00 0.00 61 1014.6
20260506154011 38 227 4.0 11.0 0.00 0.00 0.00 59 1014.6
20260506153512 38 282 3.0 11.0 0.00 0.00 0.00 61 1014.6
20260506153031 38 286 4.0 11.0 0.00 0.00 0.00 59 1014.6
20260506152509 38 270 3.0 8.0 0.00 0.00 0.00 58 1014.5
20260506152017 38 286 3.0 8.0 0.00 0.00 0.00 58 1014.5
20260506151530 38 275 3.0 8.0 0.00 0.00 0.00 58 1014.4
20260506151010 38 275 3.0 8.0 0.00 0.00 0.00 58 1014.4
20260506150511 38 271 2.0 7.0 0.00 0.00 0.00 60 1014.4
20260506150030 38 262 2.0 10.0 0.00 0.00 0.00 59 1014.3
20260506145510 37 298 3.0 10.0 0.00 0.00 0.00 59 1014.5
20260506145012 38 273 3.0 9.0 0.00 0.00 0.00 58 1014.4
20260506144540 39 0 1.0 9.0 0.00 0.00 0.00 59 1014.4
20260506144015 39 229 2.0 9.0 0.00 0.00 0.00 61 1014.4
20260506143516 39 307 3.0 9.0 0.00 0.00 0.00 61 1014.4
20260506143032 38 250 4.0 10.0 0.00 0.00 0.00 61 1014.5
20260506142511 38 304 2.0 10.0 0.00 0.00 0.00 62 1014.6
20260506142011 38 242 2.0 10.0 0.00 0.00 0.00 63 1014.6
20260506141536 37 355 1.0 8.0 0.00 0.00 0.00 66 1014.6
20260506141011 37 317 2.0 8.0 0.00 0.00 0.00 64 1014.6
20260506140512 36 228 1.0 8.0 0.00 0.00 0.00 66 1014.6
20260506140032 36 311 2.0 8.0 0.00 0.00 0.00 64 1014.6
20260506135510 36 0 2.0 8.0 0.00 0.00 0.00 66 1014.6
20260506135017 36 267 2.0 7.0 0.00 0.00 0.00 68 1014.5
20260506134530 36 290 2.0 7.0 0.00 0.00 0.00 68 1014.5
20260506134013 35 255 3.0 8.0 0.00 0.00 0.00 67 1014.5
20260506133512 35 240 3.0 8.0 0.00 0.00 0.00 68 1014.5
20260506133030 34 278 2.0 9.0 0.00 0.00 0.00 69 1014.5
20260506132511 34 263 4.0 9.0 0.00 0.00 0.00 68 1014.5
20260506132015 34 256 4.0 8.0 0.00 0.00 0.00 69 1014.4
20260506131532 34 267 3.0 8.0 0.00 0.00 0.00 69 1014.3
20260506131011 34 263 2.0 8.0 0.00 0.00 0.00 70 1014.3
20260506130514 33 261 3.0 8.0 0.00 0.00 0.00 69 1014.4
20260506130031 33 255 2.0 7.0 0.00 0.00 0.00 71 1014.4
20260506125512 33 256 2.0 8.0 0.00 0.00 0.00 70 1014.5
20260506125013 33 261 3.0 8.0 0.00 0.00 0.00 70 1014.3
20260506124531 33 281 3.0 9.0 0.00 0.00 0.00 70 1014.4
20260506124010 33 256 3.0 9.0 0.00 0.00 0.00 70 1014.2
20260506123515 32 284 1.0 7.0 0.00 0.00 0.00 72 1014.3
20260506123030 32 265 3.0 6.0 0.00 0.00 0.00 71 1014.2
20260506122510 32 261 2.0 7.0 0.00 0.00 0.00 72 1014.2
20260506122018 32 266 3.0 7.0 0.00 0.00 0.00 71 1014.1
20260506121530 31 260 1.0 7.0 0.00 0.00 0.00 72 1014.0
20260506121011 31 260 3.0 7.0 0.00 0.00 0.00 71 1013.8
20260506120513 31 263 1.0 4.0 0.00 0.00 0.00 72 1013.8
20260506120031 31 263 2.0 4.0 0.00 0.00 0.00 72 1013.8
20260506115514 31 270 1.0 4.0 0.00 0.00 0.00 72 1013.7
20260506115015 31 259 1.0 3.0 0.00 0.00 0.00 72 1013.6
20260506114530 31 259 1.0 4.0 0.00 0.00 0.00 72 1013.5
20260506114012 31 0 0.0 4.0 0.00 0.00 0.00 71 1013.5
20260506113513 31 259 1.0 4.0 0.00 0.00 0.00 71 1013.4
20260506113032 31 259 1.0 6.0 0.00 0.00 0.00 70 1013.3
20260506112510 31 259 1.0 6.0 0.00 0.00 0.00 69 1013.3
20260506112015 31 259 2.0 6.0 0.00 0.00 0.00 69 1013.3
20260506111531 31 306 0.0 5.0 0.00 0.00 0.00 69 1013.3
20260506111012 31 263 0.0 4.0 0.00 0.00 0.00 69 1013.2
20260506110512 31 263 2.0 4.0 0.00 0.00 0.00 68 1013.2
20260506110030 31 344 1.0 4.0 0.00 0.00 0.00 68 1013.1
20260506105512 32 344 1.0 4.0 0.00 0.00 0.00 67 1013.1
20260506105014 32 288 1.0 6.0 0.00 0.00 0.00 66 1013.1
20260506104533 32 292 2.0 8.0 0.00 0.00 0.00 66 1013.2
20260506104016 33 355 1.0 8.0 0.00 0.00 0.00 65 1013.1